Regional Weather Roundup
Issued by NWS

Home | Current Version | Previous Version | Graphics & Text | Print | Product List | Glossary On
Versions: 1 2 3 4 5 6 7 8 9 10 11 12 13 14 15 16 17 18 19 20 21 22 23 24 25 26 27 28 29 30 31 32 33 34 35 36 37 38 39 40 41 42 43 44 45 46 47 48 49 50
000
ASUS43 KBIS 131810
RWRND

NORTH DAKOTA REGIONAL WEATHER ROUNDUP
NATIONAL WEATHER SERVICE BISMARCK ND
1200 PM CST WED DEC 13 2017

NOTE: "FAIR" INDICATES FEW OR NO CLOUDS BELOW 12,000 FEET WITH NO
SIGNIFICANT WEATHER AND/OR OBSTRUCTIONS TO VISIBILITY.


NDZ001>003-009>011-017-131900-
NORTHWEST NORTH DAKOTA

CITY           SKY/WX    TMP DP  RH WIND       PRES   REMARKS
WILLISTON      CLOUDY    39  26  59 NW22G31   30.04R
6HR MIN TEMP:  33; 6HR MAX TEMP:  39;

MINOT          CLOUDY    36  27  69 NW20G28   29.92S
MINOT AFB      CLOUDY    35  27  71 NW23      29.91S
$$

NDZ018>021-031>035-040>046-131900-
SOUTHWEST NORTH DAKOTA

CITY           SKY/WX    TMP DP  RH WIND       PRES   REMARKS
BISMARCK       CLOUDY    36  26  67 NW23G30   29.94S
6HR MIN TEMP:  34; 6HR MAX TEMP:  37;

DICKINSON      MOSUNNY   36  25  64 NW21G32   29.97F
GARRISON         N/A     34  26  72 NW22G36   29.93S
6HR MIN TEMP:  32; 6HR MAX TEMP:  34;

HETTINGER ARPT SUNNY     39  25  57 NW26G35   30.00S
$$

NDZ004>008-012>016-024-026-027-054-131900-
NORTHEAST NORTH DAKOTA

CITY           SKY/WX    TMP DP  RH WIND       PRES   REMARKS
GRAND FORKS    CLOUDY    26  24  92 N28G38    29.79S WCI  10
GRND FRKS AFB  CLOUDY    26  25  95 N18       29.80R WCI  13
DEVILS LAKE    MIX PCPN  31  29  92 N16       29.84R WCI  20
$$

NDZ022-023-025-028>030-036>039-047>053-131900-
SOUTHEAST NORTH DAKOTA

CITY           SKY/WX    TMP DP  RH WIND       PRES   REMARKS
FARGO          CLOUDY    28  26  92 N20G26    29.78S WCI  15
6HR MIN TEMP:  28; 6HR MAX TEMP:  31; 6HR PCP: TRACE;

JAMESTOWN      CLOUDY    32  29  88 N16       29.81S
$$





USA.gov is the U.S. government's official web portal to all federal, state and local government web resources and services.